Notices

What's New in latest Release from April 7th, 2021:

- Updated Glossary, including Speed of Maximum Gust, and Total Hourly Precipitation

- Updated national and regional climate services offices contacts and prices information

- Addition of station inventory lists for 1981-2010, 1971-2000, and 1961-1990 Normals.

If you haven't already, please take our survey and provide feedback about our website: https://eccc.sondage-survey.ca/f/LanguageSelection.aspx?s=442ca660-fcf1-47c0-95a9-59707d6fd709

Hourly Data Report for March 19, 2019

MIRAMICHI RCS
NEW BRUNSWICK
Current Station Operator: ECCC - MSC

47°00'34.000" N
65°27'54.000" W
33.00 m
8100989
71744
ACQ

Download Data

Hourly Data (March 2019)
Hourly Data Report for March 19, 2019
TIME
LST
Temp Definition
°C
Dew Point Definition
°C
Rel Hum Definition
%
Precip. Amount Definition
mm

Wind Dir Definition
10's deg

Wind Spd Definition
km/h
Visibility Definition
km
Stn Press Definition
kPa
Hmdx Definition


Wind Chill Definition


Weather Definition


00:00 -12.1 -16.3 71 0.0 26 7   101.83   -16 LegendNANA
01:00 -12.2 -16.9 68 0.0 26 8   101.83   -17 LegendNANA
02:00 -12.4 -16.8 70 0.0 27 11   101.86   -18 LegendNANA
03:00 -12.8 -16.9 71 0.0 27 9   101.83   -18 LegendNANA
04:00 -13.5 -17.2 73 0.0 26 8   101.85   -19 LegendNANA
05:00 -13.7 -17.1 75 0.0 27 11   101.86   -20 LegendNANA
06:00 -14.1 -17.3 76 0.0 27 11   101.90   -21 LegendNANA
07:00 -13.9 -17.2 76 0.0 26 9   101.96   -20 LegendNANA
08:00 -11.6 -16.2 69 0.0 26 12   102.02   -18 LegendNANA
09:00 -8.3 -15.0 59 0.0 25 12   102.04   -14 LegendNANA
10:00 -5.2 -13.7 51 0.0 27 12   102.05   -10 LegendNANA
11:00 -4.1 -14.2 45 0.0 29 13   102.03   -9 LegendNANA
12:00 -3.5 -14.0 44 0.0 28 12   102.01   -8 LegendNANA
13:00 -2.3 -14.2 40 0.0 30 14   102.00   -7 LegendNANA
14:00 -0.9 -13.5 38 0.0 20 7   101.94   -3 LegendNANA
15:00 0.1 -14.1 34 0.0 26 6   101.91     LegendNANA
16:00 -1.1 -13.8 38 0.0 23 11   101.88   -5 LegendNANA
17:00 -1.2 -13.3 39 0.0 26 11   101.89   -5 LegendNANA
18:00 -1.4 -14.6 36 0.0 31 6   101.92   -4 LegendNANA
19:00 -2.1 -13.4 42 0.0 29 7   101.98   -5 LegendNANA
20:00 -4.1 -10.1 63 0.0 3 7   102.07   -7 LegendNANA
21:00 -5.4 -10.8 66 0.0 36 5   102.12   -8 LegendNANA
22:00 -7.9 -11.4 76 0.0 31 4   102.13   -10 LegendNANA
23:00 -9.4 -12.0 81 0.0 27 3   102.12   -11 LegendNANA

Notes on Data Quality.

Legend

  • E = Estimated
  • M = Missing
  • NA = Not Available*
  • [empty] = Indicates an unobserved value
Date modified: